www.pogodaiklimat.ru

Погода и климат >> Архив погоды >> Россия >> Хабаровский край >> Чекунда


АРХИВ ПОГОДЫ в Чекунде

Время (UTC), дата Ветер
(напр.,м/с)
 
Видим.   Явления Облачность Т
(С)
Тd
(С)
f
(%)
Тe
(С)
Тes
(С)
Комфортность P
(гПа)
Po
(гПа)
Тmin
(С)
Tmax
(С)
R
(мм)
R24
(мм)
S
(см)
12 18.05 ЮЗ 4-12
{12}
50 км {ливн. осадки} 10/10 600 м
[]
+10.1 +2.9 61 +8 +8 1004.8 972.7
15 18.05 Ю 1
{20}
50 км {ливн. осадки} ясно +3.9 +3.6 98 +2 +2 1006.5 973.6
18 18.05 ЮВ 2 50 км {ливн. осадки} 4/0
[Ci fib]
+4.8 +2.9 87 +2 +2 1008.4 975.5
21 18.05 Ю 1 50 км 10/0
[Ci ing]
+5.9 +4.1 88 +5 +6 1010.3 977.5 +2.0 0.3
00 19.05 ЮЗ 2 50 км 8/0
[Ci fib]
+11.7 +4.5 61 +11 +19 1010.1 978.0
03 19.05 ЮЗ 3 50 км 10/6 600 м
[Cb cap Cs]
+14.5 +2.2 43 +14 +18 1008.9 977.1
06 19.05 ЮЗ 2 50 км 10/3 1000 м
[Sc Cs]
+17.4 +2.2 36 +18 +24 1008.9 975.9
09 19.05 ЮЗ 1 50 км 10/8 600 м
[Cb cap Cs]
+16.0 +1.6 38 +17 +17 1006.6 975.1 +17.7
12 19.05 штиль 0 50 км 10/6 600 м
[Cb cap Ac trans]
+10.9 +2.2 55 +11 +11 1007.1 975.0
15 19.05 СВ 1 50 км 10/8 600 м
[Cb cap Ac trans]
+9.2 +2.7 64 +9 +9 1004.8 972.5
18 19.05 СВ 1 20 км слаб. ливневой дождь 10/10 600 м
[Cb cap]
+7.0 +6.5 97 +6 +6 1001.9 969.5
21 19.05 СВ 2 10 км слаб. ливневой дождь 10/10 600 м
[Cb cap]
+7.0 +6.8 99 +5 +5 999.0 966.7 +6.7 6
00 20.05 СВ 2 4000 м слаб. ливневой дождь 10/10 600 м
[Cb cap]
+8.6 +8.3 98 +7 +7 996.2 964.3
03 20.05 СВ 4 4000 м ливневой дождь 10/10 600 м
[Cb cap]
+9.8 +9.3 97 +7 +7 993.8 962.0
06 20.05 СВ 4 50 км в посл. час ливневой дождь 10/10 600 м
[Cb cap]
+9.9 +9.6 98 +7 +7 991.0 959.3
09 20.05 СВ 3 10 км слаб. ливневой дождь 10/10 600 м
[Cb cap]
+9.8 +8.7 93 +7 +7 990.2 958.6 +10.6 8
12 20.05 СВ 2 50 км слаб. ливневой дождь 10/8 600 м
[Cb cap Cs]
+9.3 +8.5 95 +7 +7 989.1 957.4
15 20.05 СВ 1 50 км слаб. ливневой дождь 10/10 600 м
[Cb cap]
+9.2 +9.1 99 +8 +8 989.6 957.9
18 20.05 С 1 50 км {ливн. осадки} 10/10 600 м
[Cb cap]
+8.9 +8.8 99 +8 +8 990.0 958.3
21 20.05 С 2 50 км в посл. час ливневой дождь 9/9 600 м
[Cb cap]
+9.6 +9.5 99 +8 +8 989.7 958.1 +8.5 9
00 21.05 СВ 1 10 км ливневой дождь 9/9 600 м
[Cb cap]
+11.1 +10.7 97 +11 +12 990.2 958.6
03 21.05 Ю 2 50 км в посл. час ливневой дождь 8/8 600 м
[Cb cap]
+13.7 +7.3 65 +13 +17 989.4 958.0
06 21.05 С 1
{10}
50 км в посл. час ливневой дождь {гроза} 9/9 600 м
[Cb cap]
+14.1 +6.6 61 +15 +16 989.2 958.0
09 21.05 С 1 50 км в посл. час ливневой дождь 8/4 600 м
[Cb cap Ac trans]
+11.0 +9.7 92 +11 +12 990.5 958.9 +15.6 5
12 21.05 СВ 1 50 км {ливн. осадки} 8/3 600 м
[Cb cap Ac cast]
+6.9 +6.6 98 +6 +6 992.5 960.4
15 21.05 штиль 0 50 км 3/0
[Ac trans]
+3.8 +3.7 99 +3 +3 993.3 960.8
18 21.05 штиль 0 50 км 10/5 600 м
[Cb cap Ci sp]
+1.0 +1.0 100 -0 -0 993.5 960.7
21 21.05 штиль 0 500 м туман ?/? +3.9 +3.9 100 +3 +3 993.7 961.2 +0.7
00 22.05 ЮЗ 2 50 км {туман} 10/8 600 м
[Cb cap Ci fib]
+7.0 +5.5 90 +5 +6 993.7 961.6
03 22.05 ЮЗ 2 50 км 10/8 600 м
[Cb cap Ci fib]
+13.1 +7.4 68 +12 +15 992.4 961.0
06 22.05 ЮВ 3 50 км 9/9 600 м
[Cb cap Ci fib]
+13.7 +7.0 64 +13 +14 992.3 961.0
09 22.05 Ю 1 50 км гроза без осадков 9/9 600 м
[Cb cap]
+16.3 +6.4 52 +17 +17 993.4 962.3 +17.7
12 22.05 ЮВ 1 50 км {гроза, ливн. осадки} 4/4 600 м
[Sc]
+8.6 +7.8 95 +8 +8 997.2 965.2
15 22.05 Ю 1 500 м туман ?/? +6.2 +6.1 99 +5 +5 998.7 966.4
18 22.05 Ю 1 50 км в посл. час туман 10/8 600 м
[Cb cap Ci fib]
+4.7 +4.7 100 +3 +3 1000.1 967.5
21 22.05 Ю 1 50 км 10/10 600 м
[Cb cap]
+5.9 +5.8 99 +5 +5 1001.2 968.8 +4.0 0.5
00 23.05 ЮЗ 1 50 км 10/10 600 м
[Cb cap]
+9.6 +7.4 86 +9 +9 1001.1 969.0
03 23.05 ЮЗ 2 50 км 10/10 600 м
[Cb cap]
+12.8 +6.1 64 +12 +12 1000.9 969.2
06 23.05 ЮЗ 2 50 км 10/6 600 м
[Cb cap Ci fib]
+16.9 +5.9 48 +17 +21 999.1 967.9
09 23.05 ЮЗ 2 50 км 8/6 600 м
[Cu Sc Ci fib]
+16.6 +5.6 48 +17 +18 999.4 968.2 +18.3
12 23.05 ЮВ 1 50 км в посл. час ливневой дождь 9/9 600 м
[Cb cap]
+12.3 +5.8 64 +12 +12 1001.5 969.7
15 23.05 В 1 50 км 3/3 600 м
[Sc]
+6.1 +4.5 89 +5 +5 1002.4 969.9
18 23.05 СЗ 1 50 км 10/0
[Ci fib]
+5.1 +5.0 99 +4 +4 1002.7 970.1
21 23.05 Ю 1 50 км 10/10 600 м
[Cb cap]
+6.1 +6.0 99 +5 +5 1002.8 970.3 +3.6 0.0
00 24.05 штиль 0 50 км {ливн. осадки} 9/4 1000 м
[Sc Ac As]
+10.5 +7.3 81 +10 +13 1001.6 969.6
03 24.05 З 2 50 км 10/5 600 м
[Sc Ac As]
+17.5 +9.5 59 +18 +20 998.5 967.4
06 24.05 С 2 50 км 8/0
[Ac As Ci sp]
+20.0 +9.8 52 +22 +29 комфорт 995.4 964.7
09 24.05 СВ 1 50 км 10/5 600 м
[Sc Ac As Ci sp]
+20.4 +10.3 52 +23 +24 комфорт 995.0 964.4 +22.1 0.0
12 24.05 С 2 50 км 10/3 600 м
[Cb cap Ac As]
+15.6 +9.4 67 +16 +16 996.4 965.2
15 24.05 ЮВ 1 50 км 6/0
[Ci sp]
+8.8 +8.2 96 +8 +8 997.1 965.1
18 24.05 ЮЗ 1 50 км 10/0
[Ac lent Ci fib]
+7.5 +7.4 99 +6 +6 997.7 965.5
21 24.05 СЗ 1 50 км 4/0
[Ci fib]
+12.4 +10.5 88 +12 +14 997.5 965.9 +7.1
00 25.05 З 1 50 км 10/1 1000 м
[Cu med, cong Ci fib]
+16.5 +11.1 70 +17 +26 997.4 966.3
03 25.05 ЮЗ 2 50 км 10/1 600 м
[Cb cap Ac cast Ci fib]
+24.0 +11.6 46 +26 +33 жарко 995.4 965.1
06 25.05 СВ 2
{11}
50 км 10/10 600 м
[Cb cap]
+19.9 +6.0 40 +21 +21 комфорт 998.0 967.1

 

Местоположение метеостанции Чекунда (Хабаровский край, Россия): широта 50.87 долгота 132.20 высота над уровнем моря 272 м.

В архиве по умолчанию представлена погода в Чекунде за последнюю неделю. Архивные данные за месяц целиком и за предыдущие месяцы, начиная с января 2011 года, Вы можете получить, выбрав интересующий диапазон дат из раскрывающегося списка и нажав кнопку "Ввод!".


*Определитесь, кто Вы:
робот инопланетянин человек

Внимание! Время в таблицах - всемирное. Для получения местного времени необходимо прибавить поправку, которая равна 10 ч.

Смотрите также архив погоды в соседних городах и на ближайших метеорологических станциях:

Погода в Чегдомыне (Хабаровский край, Россия) (59 км)
Погода в Сутуре (Хабаровский край, Россия) (89 км)
Погода в Сектагли (Хабаровский край, Россия) (98 км)
Погода в Усть-Умальте (Хабаровский край, Россия) (110 км)
Погода в Верховье Урми (Хабаровский край, Россия) (130 км)
Погода в Урми (Хабаровский край, Россия) (178 км)
Погода в Софийском Прииске (Хабаровский край, Россия) (195 км)
Погода в Куре (Хабаровский край, Россия) (200 км)
Погода в Февральске (Амурская область, Россия) (201 км)
Погода в Малиновке (Амурская область, Россия) (203 км)

Пояснения к столбцам:

Ветер - указаны скорость ветра в м/с - средняя за 10 мин, порывы в срок и между сроками (в фигурных скобках) и направление, откуда дует ветер: С - северный, СВ - северо-восточный, В - восточный, ЮВ - юго-восточный, Ю - южный, ЮЗ - юго-западный, З - западный, СЗ - северо-западный.
Видимость - горизонтальная дальность видимости в метрах или километрах. При видимости от 1 до 10 км при отсутствии осадков обычно наблюдается дымка, при ухудшении видимости до 1 км и менее - туман. В сухую погоду видимость может ухудшаться дымом, пылью или мглою.
Явления - указаны атмосферные явления, наблюдавшиеся в срок или в последний час перед сроком; фигурными скобками обозначены явления, наблюдавшиеся между сроками (за 1-3 часа до срока); квадратными скобками обозначены град или гололедные отложения с указанием их диаметра в мм.
Облачность - указаны через наклонную черту общая и нижняя облачность в баллах и высота нижней границы облаков в метрах; квадратными скобками обозначены формы облаков: Ci - перистые, Cs - перисто-слоистые, Cc - перисто-кучевые, Ac - высококучевые, As - высокослоистые, Sc - слоисто-кучевые, Ns - слоисто-дождевые, Cu - кучевые, Cb - кучево-дождевые. Подробнее классификацию облаков см. в Атласе облаков (PDF).
T - Температура воздуха - температура, измеренная на высоте 2 м над землей.
Td - Температура точки росы - температура, при понижении до которой содержащийся в воздухе водяной пар достигнет насыщения.
f - Относительная влажность воздуха - влажноcть воздуха, измеренная на высоте 2 м над землей.
Te - Эффективная температура - температура, которую ощущает одетый по сезону человек в тени. Характеристика душности погоды. При расчете учитывается влияние влажности воздуха и скорости ветра на теплоощущения человека.
Tes - Эффективная температура на солнце - температура, которую ощущает человек, с поправкой на солнечный нагрев. Характеристика знойности погоды. Зависит от высоты солнца над горизонтом, облачности и скорости ветра. Ночью, в пасмурную погоду, а также при ветре 12 м/с и более поправка равна нулю.
P - Атмосферное давление - приведенное к уровню моря атмосферное давление.
Po - Атмосферное давление - измеренное на уровне метеостанции атмосферное давление.
Tmin - Минимальная температура - минимум температуры воздуха на высоте 2 м над землей.
Tmax - Максимальная температура - максимум температуры воздуха на высоте 2 м над землей.
R - Количество осадков - Количество выпавших осадков за период времени, мм. При наведении курсора мыши на число - период времени, за который выпало указанное количество осадков.
R24 - Количество осадков - Количество выпавших осадков за 24 часа, мм.
S - Снежный покров - Высота снежного покрова, см. При наведении курсора мыши на число - состояние снежного покрова и степень покрытия местности в баллах.